Tracking 30922 objects as of 2-Jul-2025
HD Live streaming from Space Station
objects crossing your sky now

FENGYUN 1C DEB

Track FENGYUN 1C DEB now!
10-day predictions


NORAD ID: 30391
Int'l Code: 1999-025ADE
Perigee: 795.8 km
Apogee: 900.1 km
Inclination: 98.8 °
Period: 101.7 minutes
Semi major axis: 7218 km
RCS: 0.0444 m2 (small)
Launch date: May 10, 1999
Source: People's Republic of China (PRC)
Launch site: Taiyaun Space Center, China (TSC)

Note: This is SATELLITE DEBRIS
Your satellite tracking list
COSMOS 1275 DEB
Track 1 satellite(s)




NASA's NSSDC Master Catalog

Two Line Element Set (TLE):
1 30391U 99025ADE 25182.09515750  .00001062  00000-0  55226-3 0  9993
2 30391  98.7944 230.3421 0072290  14.4192  13.7469 14.15440805945498
Source of the keplerian elements: AFSPC